User: anonymous   Login
Location: Kott?ru
(16.6209°N, 80.6208°E)
Time: 14:34:29
(UTC+00:00)
Language:

Hubble Space Telescope - Orbit

View from above orbital plane
View from above orbital plane
View from above satellite
View from above satellite

Ground track
Ground track

The orbit data is extracted from the following two-line orbital elements,

1 20580U 90037B   24114.06837702  .00011238  00000-0  54512-3 0  9994
2 20580  28.4695 354.2046 0002572 148.5922 211.4824 15.16900415668916
Epoch (UTC): 23 April 2024 01:38:27
Eccentricity: 0.0002572
inclination: 28.4695°
perigee height: 513 km
apogee height: 517 km
right ascension of ascending node: 354.2046°
argument of perigee: 148.5922°
revolutions per day: 15.16900415
mean anomaly at epoch: 211.4824°
orbit number at epoch: 66891

The dashed part of the orbit path shows where the satellite is in the earth's shadow,  

DLR